Lamar, CO

7:09 PM MDT on April 25, 2018 (GMT -0600)
Lamar Municipal

Weather History for KLAA - November, 2013

Change the Weather History Date:

Sunday, November 17, 2013

  Actual Average Record
Temperature  
Mean Temperature 43 °F 39 °F  
Max Temperature 58 °F 56 °F 82 °F (1999)
Min Temperature 27 °F 23 °F -1 °F (2014)
Degree Days  
Heating Degree Days 22 26  
Month to date heating degree days 344 377  
Since 1 July heating degree days 756 844  
Cooling Degree Days 0 0  
Month to date cooling degree days 0 0  
Year to date cooling degree days 1568 1121  
Moisture  
Dew Point 21 °F    
Average Humidity 49    
Maximum Humidity 78    
Minimum Humidity 20    
Precipitation  
Precipitation T in 0.01 in 0.50 in (1958)
Month to date precipitation 0.07 0.28  
Year to date precipitation 10.13  
Sea Level Pressure  
Sea Level Pressure 29.84 in    
Wind  
Wind Speed 7 mph (ENE)    
Max Wind Speed 31 mph    
Max Gust Speed 39 mph    
Visibility 10 miles    
Events      
T = Trace of Precipitation, MM = Missing Value Source: NWS Daily Summary

Daily Weather History Graph

Daily Weather History Graph

Search for Another Location

Airport or City:

Astronomy

Nov. 17, 2013 Rise Set
Actual Time 6:34 AM MST 4:37 PM MST
Civil Twilight 6:05 AM MST 5:05 PM MST
Nautical Twilight 5:33 AM MST 5:37 PM MST
Astronomical Twilight 5:02 AM MST 6:08 PM MST
Moon 4:55 PM MST (11/17) 6:30 AM MST (11/17)
Length of Visible Light 10h 59m
Length of Day
10h 03m
Full, 100% of the Moon is Illuminated
Nov 17
Full
Nov 25
Last Quarter
Dec 2
New
Dec 9
First Quarter
Dec 17
Full

Hourly Weather History & Observations

Time (MST) Temp. Windchill Dew Point Humidity Pressure Visibility Wind Dir Wind Speed Gust Speed Precip Events Conditions
12:32 AM 48.2 °F - 26.6 °F 43% 29.52 in 10.0 mi North 16.1 mph - 0.00 in   Scattered Clouds
12:53 AM 46.9 °F - 27.0 °F 46% 29.44 in 10.0 mi NNE 8.1 mph - 0.00 in   Scattered Clouds
1:53 AM 41.0 °F 38.0 °F 26.1 °F 55% 29.49 in 10.0 mi NNW 4.6 mph - N/A   Clear
2:53 AM 36.0 °F 30.3 °F 26.1 °F 67% 29.55 in 10.0 mi SSW 6.9 mph - N/A   Clear
3:53 AM 33.1 °F 26.1 °F 26.1 °F 75% 29.59 in 10.0 mi SSW 8.1 mph - N/A   Scattered Clouds
4:53 AM 30.9 °F 24.3 °F 25.0 °F 79% 29.62 in 10.0 mi South 6.9 mph - N/A   Scattered Clouds
5:53 AM 30.9 °F 23.5 °F 24.1 °F 76% 29.67 in 10.0 mi SSW 8.1 mph - N/A   Overcast
6:53 AM 28.0 °F 21.7 °F 23.0 °F 81% 29.72 in 10.0 mi WSW 5.8 mph - N/A   Clear
7:53 AM 37.0 °F 32.4 °F 26.1 °F 65% 29.74 in 10.0 mi WNW 5.8 mph - N/A   Clear
8:53 AM 46.9 °F - 30.0 °F 52% 29.82 in 10.0 mi North 5.8 mph - N/A   Clear
9:53 AM 54.0 °F - 27.0 °F 35% 29.85 in 10.0 mi North 9.2 mph - N/A   Clear
10:53 AM 54.0 °F - 23.0 °F 30% 29.88 in 10.0 mi NE 11.5 mph - N/A   Clear
11:53 AM 55.0 °F - 21.0 °F 27% 29.87 in 10.0 mi NE 9.2 mph - N/A   Clear
12:53 PM 55.9 °F - 19.9 °F 25% 29.87 in 10.0 mi South 4.6 mph - N/A   Clear
1:53 PM 57.9 °F - 19.0 °F 22% 29.88 in 10.0 mi ENE 5.8 mph - N/A   Clear
2:53 PM 57.9 °F - 18.0 °F 21% 29.91 in 10.0 mi ESE 6.9 mph - N/A   Clear
3:53 PM 55.9 °F - 16.0 °F 21% 29.95 in 10.0 mi East 9.2 mph - N/A   Clear
4:53 PM 45.0 °F 40.1 °F 16.0 °F 31% 30.00 in 10.0 mi East 9.2 mph - N/A   Clear
5:53 PM 42.1 °F 37.1 °F 15.1 °F 34% 30.04 in 10.0 mi East 8.1 mph - N/A   Clear
6:53 PM 39.9 °F 34.5 °F 15.1 °F 36% 30.09 in 10.0 mi East 8.1 mph - N/A   Clear
7:53 PM 37.0 °F 31.6 °F 14.0 °F 39% 30.09 in 10.0 mi East 6.9 mph - N/A   Clear
8:53 PM 33.1 °F - 12.9 °F 43% 30.11 in 10.0 mi Calm Calm - N/A   Clear
9:53 PM 30.0 °F 23.2 °F 12.0 °F 47% 30.12 in 10.0 mi SSW 6.9 mph - N/A   Clear
10:53 PM 28.0 °F 24.2 °F 12.0 °F 51% 30.13 in 10.0 mi West 3.5 mph - N/A   Clear
11:53 PM 28.9 °F - 12.0 °F 49% 30.14 in 10.0 mi Calm Calm - N/A   Clear